Location: Appleton
(44.2618°N, 88.4157°W)
Time: 19:29:55
(UTC+00:00)

Transit 4A - Visible Passes

Search period start: 04 March 2021 00:00
Search period end: 14 March 2021 00:00
Orbit: 866 x 978 km, 66.8° (Epoch: 04 March)

Date Brightness Start Highest point End Pass type
(mag) Time Alt. Az. Time Alt. Az. Time Alt. Az.
04 Mar 8.3 01:20:51 10° NW 01:26:47 61° WSW 01:32:32 10° SSE visible
05 Mar 9.0 01:30:22 10° NW 01:35:58 41° WSW 01:41:23 10° S visible
06 Mar 9.7 01:40:05 10° NW 01:45:03 28° WSW 01:49:55 10° SSW visible
07 Mar 10.3 01:50:07 10° WNW 01:54:04 19° WSW 01:57:58 10° SSW visible
08 Mar 8.1 00:11:44 10° NW 00:17:46 77° WSW 00:23:36 10° SSE visible
08 Mar 10.7 02:01:04 10° W 02:03:01 12° W 02:04:58 10° WSW visible
09 Mar 8.8 00:21:10 10° NW 00:27:00 53° WSW 00:32:38 10° S visible
10 Mar 9.6 00:30:45 10° NW 00:36:08 36° WSW 00:41:23 10° S visible
11 Mar 10.3 00:40:33 10° NW 00:45:12 24° WSW 00:49:46 10° SSW visible
12 Mar 10.7 00:50:48 10° WNW 00:54:12 16° WSW 00:57:34 10° SW visible
